Regional Weather Roundup
Issued by NWS

Home | Current Version | Previous Version | Graphics & Text | Print | Product List | Glossary On
Versions: 1 2 3 4 5 6 7 8 9 10 11 12 13 14 15 16 17 18 19 20 21 22 23 24 25 26 27 28 29 30 31 32 33 34 35 36 37 38 39 40 41 42 43 44 45 46 47 48 49 50
824
ASUS44 KJAN 201603
RWRMS

MISSISSIPPI HOURLY WEATHER ROUNDUP
NATIONAL WEATHER SERVICE JACKSON MS
1100 AM CDT WED AUG 20 2014

NOTE: "FAIR: INDICATES FEW OR NO CLOUDS BELOW 12,000 FEET WITH NO
SIGNIFICANT WEATHER AND/OR OBSTRUCTIONS TO VISIBILITY.

MSZ001>002-007>008-010>013-018>021-025>028-034>036-201700-
NORTHWEST MISSISSIPPI

CITY           SKY/WX    TMP DP  RH WIND       PRES   REMARKS
CLARKSDALE     FAIR      86  75  70 W7        30.06R HX  95
CLEVELAND      FAIR      85  75  72 W7        30.05F HX  94
GREENWOOD      SUNNY     86  71  60 W6        30.07R HX  91
GREENVILLE       N/A    N/A N/A N/A MISG      30.05S
GRENADA        FAIR      86  70  58 NW8       30.07R HX  90
OLIVE BRANCH   MOSUNNY   88  79  74 SW8       30.05R HX 102
OXFORD           N/A     84  70  61 W7        30.08R
TUNICA         SUNNY     86  72  62 SW8       30.06R HX  92
$$

MSZ003>006-009-014>017-022>024-029>033-037>039-201700-
NORTHEAST MISSISSIPPI

CITY           SKY/WX    TMP DP  RH WIND       PRES   REMARKS
BELMONT        FAIR      86  76  72 SW10      30.06S HX  96
COLUMBUS AFB   SUNNY     89  73  59 W9        30.06S HX  96
CORINTH        FAIR      88  75  66 W9        30.03S HX  97
GOLDN TRIANGLE SUNNY     90  72  55 W6        30.07S HX  96
STARKVILLE     FAIR      88  72  58 NW3       30.07S HX  94
TUPELO         SUNNY     90  72  55 W10       30.05S HX  97
$$

MSZ040-058-201700-
CENTRAL MISSISSIPPI

CITY           SKY/WX    TMP DP  RH WIND       PRES   REMARKS
JACKSON INTL   MOSUNNY   87  72  60 CALM      30.10R HX  93
JACKSON HAWKNS MOSUNNY   87  70  56 SW6       30.10R HX  92
MERIDIAN KEY   SUNNY     87  71  58 SW6       30.09S HX  93
MERIDIAN NAS   SUNNY     88  71  57 W8        30.09R HX  94
RAYMOND        FAIR      86  81  84 W6        30.09S HX 102
VICKSBURG      MOSUNNY   86  72  62 VRB3      30.08S HX  92
$$

MSZ059>079-201700-
SOUTH MISSISSIPPI

CITY           SKY/WX    TMP DP  RH WIND       PRES   REMARKS
BROOKHAVEN     FAIR      88  72  58 SW6       30.12S HX  94
COLUMBIA       FAIR      88  73  62 MISG      30.09S HX  96
HATTIESBURG    MOSUNNY   89  71  55 VRB7      30.10S HX  95
MCCOMB         SUNNY     88  71  57 SW7       30.10R HX  94
NATCHEZ        MOSUNNY   86  75  70 SW7       30.09S HX  95
PINE BELT      MOSUNNY   88  72  58 SW6       30.12S HX  94
$$

MSZ080>082-201700-
COASTAL MISSISSIPPI

CITY           SKY/WX    TMP DP  RH WIND       PRES   REMARKS
BAY ST LOUIS   MOSUNNY  N/A N/A N/A CALM      30.09S
BILOXI         PTSUNNY   88  75  64 SW6       30.10R HX  97
PASCAGOULA     MOSUNNY   89  73  59 VRB3      30.10R HX  97
GULFPORT       MOSUNNY   89  74  60 VRB5      30.09S HX  98
$$



USA.gov is the U.S. government's official web portal to all federal, state and local government web resources and services.